FENGYUN 1C DEB

Satellite information

Favourite Embed

Satellite Type and Status

DEBRISIN ORBIT

Key statistics

Satellite FENGYUN 1C DEB at a glance.

Uptime

9663

Days in orbit

Revolutions

≈ 14.3

Per day

Orbit

SSO

Sun Synchronous Orbit

Inclination

98.9

Latest

Satellite identification and parameters

Extended collection of information and parameters for FENGYUN 1C DEB.

Object identification

Identified? True

Debris? True

Object name: FENGYUN 1C DEB

International designator: 1999-025YM

Object number (NORAD): 30276

Object ID (CCSDS): 30276

Country: PEOPLES REPUBLIC OF CHINA (PRC)

Current information (Y/N): Y

RCS size: SMALL

Orbital parameters

Period: 100.941 minutes

Inclination: 98.863 deg

SMA: 7181.357 km

Apoapsis: 821.331 km

Periapsis: 785.112 km

RAAN: 6.61 deg

Eccentricy: 0.0025218

Argument of periapsis: 232.8305 deg

Mean anomaly: 127.0572 deg

Mean motion: 14.26569812 rev/day

Mean motion (dot): 0.00003692 rev/day2

B* drag term: 0.0015432817 1/REarth

Two-line elements (TLE)

Creation date: Oct. 23, 2025, 2:46 a.m.

Reference frame: TEME

Reference center: EARTH

Epoch: Oct. 22, 2025, 4:05 p.m. UTC

TLE line 0: 0 FENGYUN 1C DEB

TLE line 1: 1 30276U 99025YM 25295.67079789 .00003692 00000-0 15433-2 0 9997

TLE line 2: 2 30276 98.8630 6.6100 0025218 232.8305 127.0572 14.26569812968021

Live tracking on map

Real-time ground track for satellite FENGYUN 1C DEB.

In-orbit conjunctions

A list of the most updated potential collisions computed for object FENGYUN 1C DEB.

Target Orbit TCA Probability of collision Miss distance Type
SL-3 DEB LEO 2024-12-12 19:27:11 0.0001271684 175.0 (m) DEBRIS
COSMOS 2251 DEB LEO 2024-08-12 16:03:56 0.0001566875 422.0 (m) DEBRIS
NOAA 16 DEB SSO 2024-07-19 08:16:01 0.0001392541 177.0 (m) DEBRIS

Associated space launch

Chinese polar orbiting meteorological satellite

FENGYUN 1C DEB was lifted into orbit during the mission ‘Long March 4B | Feng Yun 1C’, on board a Long March 4B space rocket.

The launch took place on May 10, 1999, 1:33 a.m. from Launch Complex 7.

For more information about the launch, click the button.

Launch to space Long March 4B | Feng Yun 1C
Long March 4B | Feng Yun 1C

Agency: N/A

Status: Launch Successful

Launch date: May 10, 1999, 1:33 a.m. UTC

Rocket: Long March 4B

Launch pad: Launch Complex 7

Location: Taiyuan Satellite Launch Center, People's Republic of China

...

Latest news about this satellite

There are no fresh news available about this satellite. Check back as we update our databases every day.


Newsletter sign-up

Weekly statistics, charts and insights to help you stay on top of the space industry.